Location: Unspecified
(0.0000°N, 0.0000°E)
Time: 07:11:27
(UTC+00:00)

Kosmos-648 - Pass Details

Date: 12 July 2022
Orbit: 1437 x 1489 km, 74.0° (Epoch: 16 August)

Event Time Altitude Azimuth Distance (km) Brightness Sun altitude
Rises 19:11:56 0° 348° (NNW) 4,601 ? -15.3°
Reaches altitude 10° 19:14:50 10° 349° (N) 3,623 ? -16.0°
Maximum altitude 19:23:41 88° 77° (ENE) 1,487 ? -18.0°
Drops below altitude 10° 19:32:30 10° 168° (SSE) 3,610 ? -20.1°
Enters shadow 19:33:58 - 168° (SSE) 4,102 ? -20.4°
